#datint,netname,site,siteID,timestamp,IntT,BattV,AirT2,AirT,AirT_Avg,AirT_Max,AirT_Min,RH_Avg,RH_Max,RH_Min,EA_Avg,Td_Avg,Td_Max,Td_Min,WindS_Smp,WindS_Avg,WindD_Avg,WindD_SD,WindS_Max,ETo,ETr,SoilT4,SoilT8,SoilVWC8,SolarW_Avg,wetstate_Avg,wetT_Avg,Precip_accum,Precip_WPG,Precip_TB
15min,AgWx,beryljct,423,01JUN2020:00:00:00,59.5,12.92,54.6,54.4,56.7,58.0,54.4,42,50,38,0.715,34.0,36.3,32.3,3.99,4.5,184,7.4,5.6,0.00030,0.00043,61.4,60.9,16,0,.,.,13.50,0.00,0.00
15min,AgWx,beryljct,423,01JUN2020:00:15:00,59.0,12.91,54.4,54.6,56.5,58.0,54.4,41,49,35,0.696,32.9,35.8,30.8,4.691,4.6,184,6.5,5.4,0.00032,0.00045,61.2,60.9,16,0,.,.,13.51,0.00,0.00
15min,AgWx,beryljct,423,01JUN2020:00:30:00,58.1,12.91,56.7,56.8,55.8,58.3,54.5,44,49,36,0.664,34.2,35.7,31.7,4.428,4.4,188,4.5,5.4,0.00027,0.00040,61.1,60.9,16,0,.,.,13.51,0.00,0.00
15min,AgWx,beryljct,423,01JUN2020:00:45:00,57.8,12.89,57.5,57.7,57.7,59.1,56.6,36,42,33,0.575,31.0,34.1,30.0,4.735,5.0,182,4.9,6.3,0.00039,0.00055,61.0,60.9,16,0,.,.,13.51,0.00,0.00
15min,AgWx,beryljct,423,01JUN2020:01:00:00,57.4,12.89,56.2,55.7,55.9,57.7,54.5,41,46,35,0.639,32.8,34.3,30.4,4.713,4.6,195,6.9,6.2,0.00031,0.00044,60.9,60.9,16,0,.,.,13.50,0.00,0.00
15min,AgWx,beryljct,423,01JUN2020:01:15:00,57.0,12.88,55.5,55.3,55.4,56.2,55.1,44,46,41,0.669,34.1,34.6,32.8,3.836,4.5,197,1.4,5.4,0.00028,0.00040,60.8,60.9,16,0,.,.,13.51,0.01,0.00
15min,AgWx,beryljct,423,01JUN2020:01:30:00,56.4,12.86,59.3,59.0,55.8,59.0,54.4,43,48,34,0.582,33.7,35.1,30.6,3.003,3.3,197,1.3,4.1,0.00019,0.00029,60.7,60.8,16,0,.,.,13.51,0.00,0.00
15min,AgWx,beryljct,423,01JUN2020:01:45:00,56.2,12.86,56.0,59.1,59.2,60.2,57.7,33,39,30,0.570,30.3,33.2,28.5,3.266,3.5,185,7.4,4.4,0.00028,0.00042,60.5,60.8,16,0,.,.,13.51,0.00,0.00
15min,AgWx,beryljct,423,01JUN2020:02:00:00,56.0,12.85,59.7,59.1,58.0,59.5,55.7,33,42,30,0.524,29.2,33.3,28.0,3.486,3.5,179,3.4,4.2,0.00027,0.00041,60.4,60.8,16,0,.,.,13.51,0.01,0.00
15min,AgWx,beryljct,423,01JUN2020:02:15:00,55.6,12.85,52.9,53.2,56.3,59.5,51.7,38,51,30,0.632,30.4,34.2,27.8,4.341,4.4,157,18,6.8,0.00033,0.00048,60.3,60.8,16,0,.,.,13.51,0.00,0.00
15min,AgWx,beryljct,423,01JUN2020:02:30:00,54.4,12.83,47.6,47.2,49.7,53.1,47.2,56,65,46,0.711,34.4,36.1,32.2,2.959,2.9,178,16,3.8,0.00008,0.00013,60.2,60.7,16,0,.,.,13.51,0.00,0.00
15min,AgWx,beryljct,423,01JUN2020:02:45:00,53.0,12.83,54.4,53.1,50.2,53.5,47.0,51,65,40,0.560,32.7,35.9,29.8,2.324,2.5,193,10,3.7,0.00007,0.00012,60.0,60.7,16,0,.,.,13.51,0.00,0.00
15min,AgWx,beryljct,423,01JUN2020:03:00:00,51.9,12.82,48.6,49.2,50.6,54.3,48.3,53,59,39,0.653,33.9,36.1,29.8,3.288,2.3,194,0.8,3.5,0.00004,0.00008,59.9,60.7,16,0,.,.,13.52,0.00,0.00
15min,AgWx,beryljct,423,01JUN2020:03:15:00,50.7,12.82,52.3,49.4,47.7,50.8,45.1,59,69,48,0.617,34.0,36.0,31.4,3.551,3.1,197,6.9,5.0,0.00007,0.00011,59.7,60.6,16,0,.,.,13.52,0.00,0.00
15min,AgWx,beryljct,423,01JUN2020:03:30:00,49.9,12.79,48.2,46.9,50.0,53.1,46.6,51,64,41,0.678,32.6,35.1,30.0,3.858,3.2,199,9.4,5.1,0.00012,0.00019,59.6,60.6,16,0,.,.,13.52,0.00,0.00
15min,AgWx,beryljct,423,01JUN2020:03:45:00,49.1,12.79,44.9,45.4,46.9,51.2,45.1,62,69,47,0.673,34.5,35.5,31.2,3.179,3.4,224,9.5,5.3,0.00007,0.00011,59.5,60.6,16,0,.,.,13.52,0.00,0.00
15min,AgWx,beryljct,423,01JUN2020:04:00:00,48.3,12.79,45.1,45.2,45.9,49.8,44.9,63,67,51,0.673,33.9,34.6,32.4,3.376,3.2,225,10,4.7,0.00005,0.00009,59.3,60.6,16,0,.,.,13.52,0.00,0.00
15min,AgWx,beryljct,423,01JUN2020:04:15:00,47.8,12.78,47.1,48.0,47.9,54.5,45.0,56,66,38,0.633,32.6,34.3,29.7,2.981,2.4,197,12,5.5,0.00003,0.00007,59.2,60.5,16,0,.,.,13.52,0.00,0.00
15min,AgWx,beryljct,423,01JUN2020:04:30:00,47.3,12.78,43.2,44.0,46.5,49.6,44.0,55,66,42,0.647,31.1,33.8,27.4,1.666,2.9,196,21,5.5,0.00007,0.00012,59.0,60.5,17,0,.,.,13.52,0.00,0.00
15min,AgWx,beryljct,423,01JUN2020:04:45:00,46.8,12.77,45.0,46.3,46.1,51.4,43.5,61,68,46,0.644,33.1,34.2,31.3,2.17,2.3,221,27,3.7,0.00000,0.00003,58.9,60.4,17,0,.,.,13.52,0.00,0.00
15min,AgWx,beryljct,423,01JUN2020:05:00:00,46.4,12.75,49.3,46.9,46.4,50.2,43.5,58,69,47,0.589,32.5,34.2,30.5,1.929,1.5,213,23,3.9,-0.00005,-0.00006,58.7,60.4,17,0,.,.,13.52,0.00,0.00
15min,AgWx,beryljct,423,01JUN2020:05:15:00,46.3,12.75,42.9,45.2,46.9,50.4,44.4,53,62,42,0.590,30.6,32.6,28.3,2.28,2.2,193,9.5,3.7,0.00003,0.00006,58.6,60.3,16,0,.,.,13.52,0.00,0.00
15min,AgWx,beryljct,423,01JUN2020:05:30:00,45.9,12.75,46.5,46.0,44.7,47.2,42.7,64,72,54,0.573,33.2,34.4,30.4,1.425,2.4,208,5.6,3.5,0.00020,0.00035,58.4,60.2,17,0,.,.,13.52,0.00,0.00
15min,AgWx,beryljct,423,01JUN2020:05:45:00,45.5,12.74,44.1,43.2,44.9,46.8,43.2,64,76,53,0.616,33.4,36.3,30.2,3.968,1.9,244,56,4.1,0.00016,0.00027,58.3,60.2,17,0,.,.,13.52,0.00,0.00
15min,AgWx,beryljct,423,01JUN2020:06:00:00,45.2,12.72,42.2,41.9,43.8,45.6,41.4,57,66,50,0.561,29.6,32.1,27.8,2.828,3.1,331,8.4,4.3,0.00029,0.00050,58.1,60.1,17,0,.,.,13.52,0.00,0.00
15min,AgWx,beryljct,423,01JUN2020:06:15:00,44.7,12.73,40.1,40.7,41.5,42.3,40.0,63,71,59,0.580,29.9,31.4,29.1,1.469,2.1,359,37,3.4,0.00017,0.00029,58.0,60.1,17,2,.,.,13.52,0.00,0.00
15min,AgWx,beryljct,423,01JUN2020:06:30:00,44.1,12.74,40.6,40.3,41.5,43.0,39.8,64,74,54,0.612,30.1,32.6,27.4,1.863,0.9,68,0.4,2.4,0.00013,0.00019,57.8,60.0,17,11,.,.,13.52,0.00,0.00
15min,AgWx,beryljct,423,01JUN2020:06:45:00,43.8,12.75,41.7,41.2,40.4,41.3,39.7,75,81,66,0.681,33.2,34.8,30.7,1.863,1.9,152,70,3.1,0.00035,0.00044,57.7,60.0,17,53,.,.,13.52,0.00,0.00
15min,AgWx,beryljct,423,01JUN2020:07:00:00,44.4,12.76,45.5,45.8,43.3,45.8,41.2,72,78,60,0.639,34.9,35.9,32.8,2.674,1.8,199,0.6,2.7,0.00048,0.00058,57.5,59.9,17,82,.,.,13.52,0.00,0.00
15min,AgWx,beryljct,423,01JUN2020:07:15:00,46.2,12.73,49.5,49.2,47.8,49.4,45.3,61,68,56,0.729,35.1,37.2,33.2,1.929,1.9,196,1.3,3.0,0.00073,0.00090,57.4,59.8,17,124,.,.,13.52,0.00,0.00
15min,AgWx,beryljct,423,01JUN2020:07:30:00,49.2,12.74,52.1,51.8,51.0,52.0,49.2,60,72,52,0.910,37.6,42.7,33.1,0.417,1.2,191,0.0,2.5,0.00096,0.00111,57.2,59.8,17,178,.,.,13.52,0.00,0.00
15min,AgWx,beryljct,423,01JUN2020:07:45:00,52.7,12.75,53.6,53.6,52.9,53.8,51.9,74,78,70,0.975,44.7,46.6,42.4,3.88,1.1,158,34,3.9,0.00119,0.00132,57.1,59.7,17,227,.,.,13.52,0.00,0.00
15min,AgWx,beryljct,423,01JUN2020:08:00:00,55.7,12.76,57.6,57.6,55.6,57.6,53.6,68,72,64,1.124,45.3,47.7,41.9,0.745,1.6,104,20,3.8,0.00155,0.00175,57.0,59.7,17,281,.,.,13.51,0.00,0.00
15min,AgWx,beryljct,423,01JUN2020:08:15:00,59.3,12.79,63.3,62.1,59.8,62.3,57.6,58,68,52,1.019,44.8,47.1,43.6,0,0.1,118,0.0,0.7,0.00187,0.00200,56.9,59.6,17,333,.,.,13.51,0.00,0.00
15min,AgWx,beryljct,423,01JUN2020:08:30:00,62.7,12.78,62.8,62.8,61.9,62.8,61.2,58,65,49,1.206,46.8,50.7,42.7,0,1.0,118,0.1,2.2,0.00226,0.00249,56.8,59.5,17,380,.,.,13.51,0.00,0.00
15min,AgWx,beryljct,423,01JUN2020:08:45:00,65.7,12.85,65.6,65.7,64.3,66.0,62.8,61,70,52,1.225,50.6,54.1,47.4,2.938,1.0,106,7.3,3.8,0.00263,0.00289,56.8,59.5,17,431,.,.,13.51,0.00,0.00
15min,AgWx,beryljct,423,01JUN2020:09:00:00,68.5,12.98,68.7,69.7,67.8,69.7,65.7,42,58,30,0.907,43.5,50.7,36.5,3.573,2.2,136,22,5.7,0.00322,0.00370,56.8,59.4,17,488,.,.,13.50,0.00,0.00
15min,AgWx,beryljct,423,01JUN2020:09:15:00,71.3,13.22,71.2,71.4,70.4,72.0,68.7,35,47,27,0.970,41.3,47.6,35.2,1.074,3.0,175,28,7.6,0.00397,0.00466,56.8,59.3,17,579,.,.,13.50,0.00,0.00
15min,AgWx,beryljct,423,01JUN2020:09:30:00,73.5,13.38,72.4,72.6,71.6,72.6,70.6,31,41,23,0.631,39.3,45.7,32.6,7.322,6.6,168,26,13.0,0.00448,0.00569,56.8,59.3,17,576,.,.,13.49,0.00,0.00
15min,AgWx,beryljct,423,01JUN2020:09:45:00,74.4,13.58,72.5,72.7,72.5,73.5,71.9,27,31,23,0.690,36.4,40.3,33.2,12.43,10.3,188,14,15.0,0.00522,0.00698,56.9,59.2,17,613,.,.,13.49,0.00,0.00
15min,AgWx,beryljct,423,01JUN2020:10:00:00,75.1,13.72,72.9,73.4,73.0,73.5,72.5,26,31,23,0.716,36.3,40.6,33.4,13.61,10.9,199,8.9,17.3,0.00557,0.00744,57.0,59.2,17,655,.,.,13.49,0.00,0.00
15min,AgWx,beryljct,423,01JUN2020:10:15:00,75.7,13.76,73.4,73.4,73.4,73.8,73.1,26,29,23,0.729,36.1,39.1,33.3,9.51,11.9,196,12,16.8,0.00568,0.00769,57.2,59.1,17,640,.,.,13.48,0.00,0.00
15min,AgWx,beryljct,423,01JUN2020:10:30:00,76.0,14.01,74.0,74.1,73.6,74.3,73.1,26,29,23,0.674,36.6,39.5,33.9,12.19,11.5,200,9.2,17.0,0.00582,0.00779,57.3,59.0,17,676,.,.,13.48,0.00,0.00
15min,AgWx,beryljct,423,01JUN2020:10:45:00,76.6,14.03,75.1,75.1,74.6,75.1,73.8,24,29,22,0.783,35.8,39.9,33.4,10.33,13.2,188,10,19.6,0.00643,0.00869,57.4,59.0,17,736,.,.,13.48,0.00,0.00
15min,AgWx,beryljct,423,01JUN2020:11:00:00,77.1,14.03,74.9,75.2,74.9,75.6,74.1,24,28,22,0.717,36.0,40.0,33.8,8.42,12.7,189,12,18.8,0.00636,0.00858,57.5,59.0,17,719,.,.,13.47,0.00,0.00
15min,AgWx,beryljct,423,01JUN2020:11:15:00,77.6,14.02,75.7,75.3,75.2,75.7,74.6,24,29,22,0.747,36.0,40.3,33.8,11.27,13.3,186,12,21.8,0.00645,0.00873,57.7,59.0,17,719,.,.,13.47,0.00,0.00
15min,AgWx,beryljct,423,01JUN2020:11:30:00,77.8,14.03,75.3,76.1,75.5,76.3,75.0,23,26,21,0.665,35.1,38.0,33.0,17.3,15.4,185,13,21.7,0.00709,0.00966,57.8,58.9,17,800,.,.,13.48,0.00,0.00
15min,AgWx,beryljct,423,01JUN2020:11:45:00,78.3,13.97,76.9,77.3,76.1,77.4,75.3,23,27,20,0.771,35.9,40.7,31.7,14.4,13.7,192,12,20.5,0.00733,0.00977,58.0,58.9,16,865,.,.,13.47,0.00,0.00
15min,AgWx,beryljct,423,01JUN2020:12:00:00,78.8,13.97,75.7,76.9,76.6,77.4,76.1,21,25,19,0.679,34.2,38.0,31.2,13.81,15.7,195,13,21.4,0.00796,0.01072,58.2,58.8,17,937,.,.,13.47,0.00,0.00
15min,AgWx,beryljct,423,01JUN2020:12:15:00,79.5,13.92,76.4,77.4,77.3,78.0,76.1,22,27,18,0.580,35.2,40.1,30.7,8.26,14.3,191,13,21.7,0.00817,0.01080,58.3,58.8,17,989,.,.,13.47,0.00,0.00
15min,AgWx,beryljct,423,01JUN2020:12:30:00,80.0,13.91,77.0,77.3,77.6,78.4,76.9,21,26,18,0.688,34.7,39.5,30.3,19.84,14.9,188,13,22.4,0.00834,0.01106,58.5,58.8,17,1005,.,.,13.48,0.00,0.00
15min,AgWx,beryljct,423,01JUN2020:12:45:00,80.4,13.9,77.1,77.8,77.9,78.7,77.2,22,24,18,0.734,35.4,38.2,31.0,17.34,14.4,190,16,20.7,0.00843,0.01111,58.7,58.8,17,1025,.,.,13.47,0.00,0.00
15min,AgWx,beryljct,423,01JUN2020:13:00:00,80.8,13.51,77.6,78.2,78.0,78.5,77.6,22,25,19,0.705,35.9,39.1,32.2,17.6,14.9,202,16,21.8,0.00849,0.01122,58.9,58.8,16,1030,.,.,13.47,0.00,0.00
15min,AgWx,beryljct,423,01JUN2020:13:15:00,80.8,13.51,79.3,79.2,78.2,79.2,77.4,22,28,18,0.710,35.6,43.1,31.9,10.68,14.7,206,14,23.2,0.00854,0.01127,59.2,58.8,16,1035,.,.,13.47,0.00,0.00
15min,AgWx,beryljct,423,01JUN2020:13:30:00,81.2,13.6,78.5,79.1,78.8,79.4,78.0,22,25,19,0.727,36.2,40.7,32.6,12.87,14.9,201,13,22.9,0.00854,0.01131,59.5,58.8,16,1022,.,.,13.48,0.00,0.00
15min,AgWx,beryljct,423,01JUN2020:13:45:00,81.2,13.59,78.1,78.5,78.2,78.9,77.7,22,24,19,0.657,35.9,38.8,32.3,19.09,15.3,208,12,21.0,0.00815,0.01091,59.8,58.9,16,957,.,.,13.48,0.00,0.00
15min,AgWx,beryljct,423,01JUN2020:14:00:00,81.6,13.51,79.5,79.3,79.2,80.6,78.2,21,24,19,0.669,35.7,40.0,33.1,19.49,14.5,194,10,24.7,0.00853,0.01129,60.1,58.9,16,1014,.,.,13.48,0.00,0.00
15min,AgWx,beryljct,423,01JUN2020:14:15:00,82.1,13.5,80.8,79.7,79.3,79.7,78.8,21,25,18,0.811,35.9,40.5,32.5,12.12,14.4,195,14,21.7,0.00850,0.01125,60.4,58.9,16,1008,.,.,13.48,0.00,0.00
15min,AgWx,beryljct,423,01JUN2020:14:30:00,82.5,13.52,79.5,80.0,79.5,80.3,78.0,21,26,17,0.676,36.4,41.5,31.6,14.86,14.0,185,17,20.4,0.00837,0.01106,60.7,58.9,16,993,.,.,13.48,0.00,0.00
15min,AgWx,beryljct,423,01JUN2020:14:45:00,82.8,13.58,79.1,79.9,80.0,80.8,78.9,20,24,17,0.698,35.1,39.8,30.4,11.55,12.9,188,13,19.3,0.00825,0.01085,61.0,59.0,16,973,.,.,13.48,0.00,0.00
15min,AgWx,beryljct,423,01JUN2020:15:00:00,82.7,13.45,80.0,79.9,79.4,80.9,78.5,22,25,19,0.849,36.7,40.3,33.6,7.914,12.4,209,17,19.6,0.00800,0.01047,61.3,59.0,16,956,.,.,13.47,0.00,0.00
15min,AgWx,beryljct,423,01JUN2020:15:15:00,82.6,13.43,78.2,78.9,79.3,80.5,78.6,21,24,19,0.676,36.0,39.4,32.6,15.45,14.1,214,12,19.0,0.00799,0.01065,61.6,59.0,16,932,.,.,13.48,0.01,0.00
15min,AgWx,beryljct,423,01JUN2020:15:30:00,82.8,13.5,79.6,80.0,79.8,80.7,78.5,20,24,17,0.763,35.3,38.4,32.0,10.61,13.3,200,12,22.8,0.00802,0.01064,61.8,59.1,16,936,.,.,13.47,0.00,0.00
15min,AgWx,beryljct,423,01JUN2020:15:45:00,83.1,13.45,79.6,79.2,79.3,80.2,78.7,21,26,18,0.767,36.1,41.2,31.9,8.94,12.2,215,14,19.5,0.00752,0.00993,62.1,59.1,16,882,.,.,13.47,0.00,0.00
15min,AgWx,beryljct,423,01JUN2020:16:00:00,83.5,13.41,80.7,80.6,79.9,80.7,78.7,22,26,19,0.811,38.0,42.4,34.0,13.66,11.2,206,20,17.8,0.00712,0.00937,62.3,59.2,16,833,.,.,13.48,0.01,0.00
15min,AgWx,beryljct,423,01JUN2020:16:15:00,83.8,13.4,80.8,80.4,79.7,81.5,78.2,22,27,19,0.799,37.9,41.6,34.5,10.76,11.7,208,20,18.7,0.00669,0.00897,62.5,59.2,16,759,.,.,13.48,0.00,0.00
15min,AgWx,beryljct,423,01JUN2020:16:30:00,84.0,13.43,80.8,79.7,79.5,80.5,78.8,22,27,18,0.711,37.0,41.8,32.3,17.25,11.8,207,15,18.6,0.00638,0.00865,62.6,59.3,16,711,.,.,13.48,0.00,0.00
15min,AgWx,beryljct,423,01JUN2020:16:45:00,83.8,13.43,78.5,79.2,79.2,80.5,78.0,21,26,19,0.727,36.3,40.6,32.9,12.65,13.3,216,13,20.3,0.00647,0.00895,62.8,59.4,16,695,.,.,13.48,0.00,0.00
15min,AgWx,beryljct,423,01JUN2020:17:00:00,83.9,13.4,79.3,79.8,79.8,80.7,79.1,22,26,18,0.775,37.2,41.8,32.2,13.88,11.1,207,14,16.7,0.00663,0.00885,62.9,59.4,16,761,.,.,13.48,0.00,0.00
15min,AgWx,beryljct,423,01JUN2020:17:15:00,84.3,13.4,78.8,80.0,79.7,80.5,79.0,21,26,18,0.728,36.5,41.3,33.0,9.6,12.7,219,15,18.7,0.00640,0.00883,63.1,59.5,16,688,.,.,13.48,0.00,0.00
15min,AgWx,beryljct,423,01JUN2020:17:30:00,84.2,13.43,80.8,80.7,79.7,80.7,78.8,19,23,16,0.570,33.9,38.2,29.4,13.46,12.3,209,14,20.8,0.00610,0.00850,63.1,59.6,16,643,.,.,13.48,0.00,0.00
15min,AgWx,beryljct,423,01JUN2020:17:45:00,84.0,13.44,79.6,79.6,79.7,80.8,78.4,19,23,16,0.640,33.7,38.9,29.4,12.63,12.6,213,17,17.8,0.00586,0.00829,63.2,59.6,16,593,.,.,13.48,0.00,0.00
15min,AgWx,beryljct,423,01JUN2020:18:00:00,83.9,13.4,80.1,79.9,80.1,80.6,79.3,18,21,16,0.663,32.9,36.7,30.1,11.07,12.3,203,10,18.1,0.00568,0.00810,63.3,59.7,16,564,.,.,13.48,0.00,0.00
15min,AgWx,beryljct,423,01JUN2020:18:15:00,83.6,13.4,79.7,79.3,79.5,80.1,78.7,18,21,14,0.579,32.4,36.5,26.6,10.41,12.9,203,15,20.9,0.00500,0.00744,63.4,59.8,16,446,.,.,13.48,0.00,0.00
15min,AgWx,beryljct,423,01JUN2020:18:30:00,82.8,13.19,76.6,77.7,78.9,79.7,77.5,18,21,16,0.621,31.9,35.2,29.4,8.64,11.3,192,11,15.4,0.00361,0.00574,63.4,59.8,16,270,.,.,13.48,0.00,0.00
15min,AgWx,beryljct,423,01JUN2020:18:45:00,81.4,13.16,77.5,77.5,77.6,78.5,76.1,17,23,15,0.541,29.8,36.2,26.9,12.12,12.7,199,9.0,20.2,0.00324,0.00551,63.4,59.9,16,180,.,.,13.48,0.01,0.00
15min,AgWx,beryljct,423,01JUN2020:19:00:00,80.1,13.16,76.9,77.4,77.4,78.1,76.7,16,18,15,0.532,28.4,29.8,27.0,10.13,11.4,197,11,14.4,0.00278,0.00487,63.5,60.0,16,141,.,.,13.48,0.00,0.00
15min,AgWx,beryljct,423,01JUN2020:19:15:00,79.1,13.17,75.2,75.7,76.8,77.9,75.4,18,23,15,0.676,30.0,34.7,26.1,6.708,9.8,204,11,17.8,0.00256,0.00438,63.4,60.0,16,163,.,.,13.49,0.00,0.00
15min,AgWx,beryljct,423,01JUN2020:19:30:00,78.5,13.13,76.9,76.3,76.4,77.0,75.5,19,23,16,0.540,30.6,34.7,27.1,11.18,10.0,208,11,13.5,0.00255,0.00436,63.4,60.1,16,163,.,.,13.48,0.00,0.00
15min,AgWx,beryljct,423,01JUN2020:19:45:00,77.9,13.11,77.1,76.8,76.5,76.9,75.6,17,19,15,0.479,27.8,31.0,25.7,11.99,10.6,201,9.2,14.8,0.00235,0.00429,63.3,60.1,16,102,.,.,13.48,0.00,0.00
15min,AgWx,beryljct,423,01JUN2020:20:00:00,77.2,13.09,74.7,75.0,76.3,77.0,75.0,16,18,15,0.542,27.0,29.4,25.5,7.651,9.5,202,8.0,13.6,0.00138,0.00182,63.3,60.2,16,69,.,.,13.48,0.00,0.00
15min,AgWx,beryljct,423,01JUN2020:20:15:00,76.2,13.06,72.8,73.4,74.5,75.5,73.4,18,20,16,0.560,28.2,29.9,25.9,5.152,7.1,194,6.7,12.2,0.00101,0.00140,63.3,60.3,16,44,.,.,13.49,0.00,0.00
15min,AgWx,beryljct,423,01JUN2020:20:30:00,74.8,13.04,70.2,70.9,72.0,73.4,70.7,21,23,18,0.576,29.8,31.7,27.6,5.13,5.4,193,5.4,7.9,0.00068,0.00099,63.2,60.3,16,26,.,.,13.49,0.00,0.00
15min,AgWx,beryljct,423,01JUN2020:20:45:00,73.0,13.03,71.0,70.1,70.1,70.7,69.7,23,25,21,0.546,30.4,32.3,28.8,6.138,4.8,199,4.1,6.1,0.00052,0.00077,63.1,60.4,16,8,.,.,13.49,0.00,0.00
15min,AgWx,beryljct,423,01JUN2020:21:00:00,71.6,13.01,69.2,69.0,69.7,70.3,69.0,23,24,22,0.577,30.1,31.0,29.0,4.954,4.7,208,3.5,5.9,0.00048,0.00073,63.0,60.4,16,2,.,.,13.49,0.00,0.00
15min,AgWx,beryljct,423,01JUN2020:21:15:00,70.4,13.01,68.8,68.6,68.8,69.0,68.1,24,26,23,0.581,30.7,32.1,29.6,4.954,4.7,212,4.1,5.4,0.00045,0.00067,62.9,60.5,16,0,.,.,13.49,0.00,0.00
15min,AgWx,beryljct,423,01JUN2020:21:30:00,69.3,13.01,68.3,67.4,68.3,69.0,67.4,26,28,23,0.638,31.6,33.9,29.7,4.384,4.6,218,1.8,5.8,0.00043,0.00065,62.8,60.5,16,0,.,.,13.49,0.01,0.00
15min,AgWx,beryljct,423,01JUN2020:21:45:00,67.9,13,65.6,65.6,65.4,67.9,62.8,30,37,26,0.617,33.4,36.9,29.5,2.192,2.9,180,34,5.2,0.00014,0.00026,62.7,60.5,16,0,.,.,13.49,0.00,0.00
15min,AgWx,beryljct,423,01JUN2020:22:00:00,65.9,12.99,54.3,55.7,62.2,65.5,55.7,36,57,25,0.859,34.0,40.6,28.7,5.349,4.6,137,5.7,6.4,0.00031,0.00047,62.6,60.6,16,0,.,.,13.49,0.00,0.00
15min,AgWx,beryljct,423,01JUN2020:22:15:00,63.2,12.97,52.3,52.2,53.6,55.5,52.2,61,66,57,0.878,40.6,41.3,39.7,3.902,4.5,136,4.2,5.8,0.00008,0.00014,62.5,60.6,16,0,.,.,13.50,0.01,0.00
15min,AgWx,beryljct,423,01JUN2020:22:30:00,60.6,12.97,53.4,53.6,52.8,53.9,51.7,63,68,57,0.807,40.5,41.6,38.8,3.924,3.2,158,18,5.0,-0.00001,0.00001,62.3,60.6,16,0,.,.,13.50,0.00,0.00
15min,AgWx,beryljct,423,01JUN2020:22:45:00,59.1,12.97,55.2,55.6,55.8,57.3,53.5,46,58,40,0.675,35.1,38.9,32.9,4.801,4.7,174,11,5.9,0.00020,0.00030,62.2,60.7,16,0,.,.,13.50,0.00,0.00
15min,AgWx,beryljct,423,01JUN2020:23:00:00,58.2,12.94,54.8,54.2,55.3,55.9,53.8,44,47,41,0.639,33.9,34.8,32.4,5.02,4.8,182,5.7,5.6,0.00022,0.00032,62.0,60.7,16,0,.,.,13.51,0.00,0.00
15min,AgWx,beryljct,423,01JUN2020:23:15:00,57.6,12.94,55.6,56.6,55.0,56.8,53.2,45,54,40,0.711,33.9,37.1,31.8,3.858,3.8,206,40,5.4,0.00013,0.00021,61.9,60.7,16,0,.,.,13.51,0.00,0.00
15min,AgWx,beryljct,423,01JUN2020:23:30:00,57.5,12.94,56.1,57.3,59.2,61.8,56.1,41,48,35,0.773,35.4,37.9,33.0,3.551,4.2,278,7.1,5.4,0.00021,0.00033,61.7,60.7,16,0,.,.,13.51,0.00,0.00
15min,AgWx,bigpiney,439,01JUN2020:00:00:00,50.9,12.73,45.0,45.5,46.2,48.3,45.1,70,73,64,0.756,37.0,37.4,36.7,2.674,2.9,196,70,4.6,-0.00004,-0.00003,53.9,47.6,55,0,0,0.0,6.74,0.00,0.00
15min,AgWx,bigpiney,439,01JUN2020:00:15:00,50.3,12.72,43.3,43.3,44.3,45.4,43.2,75,80,71,0.750,36.7,37.4,36.3,5.744,4.4,292,23,6.3,-0.00000,0.00002,53.9,47.7,55,0,0,0.0,6.74,0.00,0.00
15min,AgWx,bigpiney,439,01JUN2020:00:30:00,49.7,12.71,44.0,43.9,43.2,44.0,42.6,81,83,79,0.784,37.8,38.3,37.0,4.779,4.8,311,8.0,6.1,-0.00002,-0.00002,53.8,47.7,55,0,0,0.0,6.74,0.00,0.00
15min,AgWx,bigpiney,439,01JUN2020:00:45:00,49.1,12.7,45.0,45.2,44.7,45.3,43.9,77,81,74,0.756,38.0,38.4,37.4,5.327,5.2,297,8.5,6.7,0.00001,0.00003,53.7,47.6,55,0,0,0.0,6.74,0.00,0.00
15min,AgWx,bigpiney,439,01JUN2020:01:00:00,48.7,12.7,42.9,43.4,43.9,45.2,43.4,78,80,74,0.746,37.5,37.8,37.0,4.735,3.0,252,15,6.2,-0.00007,-0.00007,53.6,47.7,55,0,0,0.0,6.74,0.00,0.00
15min,AgWx,bigpiney,439,01JUN2020:01:15:00,48.3,12.69,42.5,42.0,41.3,43.3,40.7,83,85,78,0.745,36.5,37.0,36.2,3.354,3.2,223,20,4.5,-0.00008,-0.00008,53.5,47.7,55,0,0,0.0,6.74,0.00,0.00
15min,AgWx,bigpiney,439,01JUN2020:01:30:00,47.8,12.68,42.3,42.3,42.4,42.7,42.0,79,82,77,0.733,36.4,37.3,36.0,3.266,3.4,239,13,4.6,-0.00006,-0.00006,53.4,47.7,55,0,0,0.0,6.74,0.00,0.00
15min,AgWx,bigpiney,439,01JUN2020:01:45:00,47.3,12.67,41.7,41.6,42.0,42.7,41.5,81,84,78,0.739,36.5,37.2,36.1,4.472,3.9,228,18,4.9,-0.00005,-0.00005,53.3,47.7,55,0,0,0.0,6.74,0.00,0.00
15min,AgWx,bigpiney,439,01JUN2020:02:00:00,47.0,12.67,41.2,41.5,41.8,42.5,41.3,82,84,80,0.740,36.8,37.3,36.6,1.754,3.2,241,26,4.8,-0.00007,-0.00008,53.2,47.7,55,0,0,0.0,6.74,0.00,0.00
15min,AgWx,bigpiney,439,01JUN2020:02:15:00,46.7,12.66,45.0,44.3,42.5,44.3,41.0,79,84,73,0.719,36.4,36.8,35.9,2.916,1.3,279,61,6.8,-0.00015,-0.00021,53.1,47.7,55,0,0,0.0,6.74,0.00,0.00
15min,AgWx,bigpiney,439,01JUN2020:02:30:00,46.5,12.65,46.5,45.2,44.6,45.9,43.6,71,74,66,0.714,35.7,36.3,34.8,1.447,3.4,348,64,9.5,-0.00002,-0.00001,53.1,47.7,55,0,0,0.0,6.74,0.00,0.00
15min,AgWx,bigpiney,439,01JUN2020:02:45:00,46.6,12.64,42.8,42.7,44.0,45.5,42.6,73,80,69,0.741,35.9,36.8,35.3,3.135,1.8,186,63,5.3,-0.00011,-0.00014,53.0,47.7,55,0,0,0.0,6.74,0.00,0.00
15min,AgWx,bigpiney,439,01JUN2020:03:00:00,46.7,12.63,42.8,42.9,43.5,44.3,42.5,78,83,76,0.780,37.3,38.2,36.9,3.332,2.4,96,14,4.6,-0.00010,-0.00011,52.9,47.7,55,0,0,0.0,6.74,0.00,0.00
15min,AgWx,bigpiney,439,01JUN2020:03:15:00,46.8,12.63,43.2,43.1,42.9,43.1,42.6,84,85,83,0.801,38.4,38.8,38.1,3.683,2.5,115,13,4.1,-0.00011,-0.00013,52.8,47.8,55,0,0,0.0,6.74,0.00,0.00
15min,AgWx,bigpiney,439,01JUN2020:03:30:00,46.9,12.62,43.4,43.6,43.4,43.9,43.0,82,85,80,0.783,38.4,38.9,38.1,2.894,1.6,141,36,4.3,-0.00014,-0.00019,52.7,47.7,55,0,0,0.0,6.74,0.00,0.00
15min,AgWx,bigpiney,439,01JUN2020:03:45:00,46.8,12.61,43.3,43.2,42.8,43.5,42.0,86,88,82,0.791,38.7,39.1,38.2,1.25,1.6,259,38,2.9,-0.00015,-0.00020,52.6,47.7,55,0,0,0.0,6.74,0.00,0.00
15min,AgWx,bigpiney,439,01JUN2020:04:00:00,46.7,12.59,42.4,42.2,42.4,43.3,41.9,85,86,83,0.767,38.2,38.6,37.7,2.368,2.3,278,16,3.7,-0.00012,-0.00014,52.5,47.8,55,0,0,0.0,6.74,0.00,0.00
15min,AgWx,bigpiney,439,01JUN2020:04:15:00,46.6,12.59,43.4,43.2,43.0,43.4,42.2,82,84,81,0.768,37.9,38.2,37.5,3.003,2.0,233,34,3.8,-0.00012,-0.00016,52.4,47.7,55,0,0,0.0,6.74,0.00,0.00
15min,AgWx,bigpiney,439,01JUN2020:04:30:00,46.5,12.57,43.2,42.9,42.8,43.3,42.4,83,87,79,0.788,38.0,38.9,37.4,3.332,3.1,202,26,4.1,-0.00008,-0.00010,52.3,47.8,55,0,0,0.0,6.74,0.00,0.00
15min,AgWx,bigpiney,439,01JUN2020:04:45:00,46.6,12.57,42.6,42.6,43.2,44.6,42.6,82,86,74,0.798,38.2,38.8,36.8,4.253,3.5,201,23,5.7,-0.00007,-0.00007,52.2,47.7,55,0,0,0.0,6.74,0.00,0.00
15min,AgWx,bigpiney,439,01JUN2020:05:00:00,46.6,12.57,44.2,43.7,43.0,43.7,42.5,84,86,82,0.795,38.5,38.8,38.2,3.617,4.2,226,15,5.5,-0.00005,-0.00005,52.1,47.8,55,0,0,0.0,6.74,0.00,0.00
15min,AgWx,bigpiney,439,01JUN2020:05:15:00,46.8,12.55,45.0,44.7,44.3,44.7,43.8,79,82,76,0.768,38.4,38.8,37.8,2.587,3.3,255,14,4.8,-0.00006,-0.00006,52.0,47.8,55,0,0,0.0,6.74,0.00,0.00
15min,AgWx,bigpiney,439,01JUN2020:05:30:00,46.9,12.54,46.6,46.3,45.4,46.3,44.7,75,78,69,0.742,37.9,38.5,36.9,0.833,0.5,271,5.9,2.5,-0.00021,-0.00030,51.9,47.8,55,0,0,0.0,6.74,0.00,0.00
15min,AgWx,bigpiney,439,01JUN2020:05:45:00,47.1,12.53,45.0,45.2,45.6,46.5,44.9,75,80,69,0.786,38.0,39.9,36.6,2.324,1.8,326,24,3.1,-0.00011,-0.00014,51.8,47.8,55,1,0,0.0,6.74,0.00,0.00
15min,AgWx,bigpiney,439,01JUN2020:06:00:00,47.2,12.53,44.4,44.2,44.9,45.2,44.2,78,82,77,0.809,38.5,39.2,38.3,0,1.0,355,8.1,2.9,-0.00004,-0.00001,51.7,47.7,55,5,0,0.0,6.74,0.00,0.00
15min,AgWx,bigpiney,439,01JUN2020:06:15:00,47.1,12.54,43.7,43.9,44.4,45.0,43.8,80,83,78,0.798,38.7,39.1,38.4,1.491,1.7,292,7.5,3.5,-0.00010,-0.00005,51.6,47.7,55,16,0,0.0,6.74,0.00,0.00
15min,AgWx,bigpiney,439,01JUN2020:06:30:00,46.8,12.57,42.4,42.1,42.4,43.8,41.8,86,88,82,0.769,38.6,39.4,37.8,1.578,2.2,227,14,3.8,0.00003,0.00007,51.5,47.7,55,29,0,0.0,6.74,0.00,0.00
15min,AgWx,bigpiney,439,01JUN2020:06:45:00,46.2,12.6,41.7,41.4,41.6,42.2,40.9,87,89,84,0.792,38.0,38.6,37.6,0,1.2,202,11,2.9,0.00009,0.00012,51.4,47.7,55,59,0,0.0,6.74,0.00,0.00
15min,AgWx,bigpiney,439,01JUN2020:07:00:00,46.0,12.64,42.7,42.7,42.3,42.9,41.4,88,89,85,0.821,38.9,39.5,38.5,0,0.9,222,12,1.9,0.00022,0.00025,51.4,47.7,55,68,0,0.0,6.74,0.00,0.00
15min,AgWx,bigpiney,439,01JUN2020:07:15:00,45.9,12.78,44.5,44.2,43.2,44.2,42.6,87,89,83,0.850,39.6,40.4,38.7,1.469,1.5,233,18,2.8,0.00035,0.00041,51.3,47.7,55,94,0,0.0,6.74,0.00,0.00
15min,AgWx,bigpiney,439,01JUN2020:07:30:00,46.2,12.88,47.0,46.4,45.2,46.4,44.2,86,87,84,0.901,41.3,42.1,40.4,1.074,1.4,233,14,2.4,0.00055,0.00062,51.2,47.7,55,140,0,0.0,6.74,0.00,0.00
15min,AgWx,bigpiney,439,01JUN2020:07:45:00,46.9,13.06,48.7,48.4,47.7,48.4,46.5,81,84,76,0.882,42.0,43.6,41.1,1.535,0.8,263,22,1.6,0.00077,0.00084,51.1,47.7,55,178,0,0.0,6.74,0.00,0.00
15min,AgWx,bigpiney,439,01JUN2020:08:00:00,48.1,13.21,49.9,50.0,49.4,50.0,48.5,75,78,69,0.865,41.7,43.2,40.3,0,0.7,257,45,2.1,0.00099,0.00109,51.0,47.6,55,214,0,0.0,6.74,0.00,0.00